N3EYQ Weather Reports


Display with metric or nautical units.
time (UTC)temp
F
wind
direction
speed
MPH
gust
MPH
rain 1hr
in
rain 24hr
in
rain mn
in
humidity
%
barometer
mb
20260503022959 46 0 0.0 0.0 0.00 0.00 0.00 53 1012.7
20260503021959 47 0 0.0 0.0 0.00 0.00 0.00 52 1012.7
20260503020959 47 0 0.0 0.0 0.00 0.00 0.00 52 1013.0
20260503015959 47 0 0.0 0.0 0.00 0.00 0.00 53 1013.0
20260503014958 47 0 0.0 0.0 0.00 0.00 0.00 55 1013.0
20260503013959 45 0 0.0 0.0 0.00 0.00 0.00 60 1012.7
20260503012959 45 0 0.0 0.0 0.00 0.00 0.00 57 1012.7
20260503011958 46 0 0.0 0.0 0.00 0.00 0.00 57 1012.7
20260503010958 46 0 0.0 0.0 0.00 0.00 0.00 55 1012.7
20260503005958 48 0 0.0 0.0 0.00 0.00 0.00 53 1012.7
20260503004958 48 0 0.0 0.0 0.00 0.00 0.00 51 1012.3
20260503003958 49 0 0.0 0.0 0.00 0.00 0.00 49 1012.0
20260503002958 50 0 0.0 0.0 0.00 0.00 0.00 48 1012.0
20260503001958 50 0 0.0 0.0 0.00 0.00 0.00 47 1012.0
20260503000957 51 0 0.0 0.0 0.00 0.00 0.00 46 1012.0
20260502235957 52 0 0.0 0.0 0.00 0.00 0.00 45 1012.0
20260502234957 53 0 0.0 0.0 0.00 0.00 0.00 44 1011.6
20260502233957 53 0 0.0 0.0 0.00 0.00 0.00 44 1011.6
20260502232957 54 0 0.0 0.0 0.00 0.00 0.00 44 1011.6
20260502231957 54 0 0.0 0.0 0.00 0.00 0.00 43 1011.6
20260502230956 54 0 0.0 0.0 0.00 0.00 0.00 44 1011.6
20260502225956 54 0 0.0 0.0 0.00 0.00 0.00 44 1011.6
20260502224956 54 0 0.0 0.0 0.00 0.00 0.00 44 1011.3
20260502223956 54 0 0.0 0.0 0.00 0.00 0.00 43 1011.3
20260502222956 55 0 0.0 0.0 0.00 0.00 0.00 41 1011.3
20260502221957 55 0 0.0 0.0 0.00 0.00 0.00 42 1011.0
20260502220956 55 0 0.0 0.0 0.00 0.00 0.00 40 1011.0
20260502215956 56 0 0.0 0.0 0.00 0.00 0.00 41 1011.0
20260502214955 56 0 0.0 0.0 0.00 0.00 0.00 42 1011.0
20260502213955 56 0 0.0 0.0 0.00 0.00 0.00 40 1011.0
20260502212955 57 0 0.0 0.0 0.00 0.00 0.00 42 1010.6
20260502211955 57 0 0.0 0.0 0.00 0.00 0.00 41 1010.6
20260502210955 58 0 0.0 0.0 0.00 0.00 0.00 40 1010.6
20260502205955 58 0 0.0 0.0 0.00 0.00 0.00 40 1010.6
20260502204954 59 0 0.0 0.0 0.00 0.00 0.00 39 1010.3
20260502203954 60 0 0.0 0.0 0.00 0.00 0.00 39 1010.3
20260502202954 59 0 0.0 0.0 0.00 0.00 0.00 39 1010.3
20260502201954 58 0 0.0 0.0 0.00 0.00 0.00 40 1010.6
20260502200954 58 0 0.0 0.0 0.00 0.00 0.00 39 1010.6
20260502195954 58 0 0.0 0.0 0.00 0.00 0.00 45 1011.0
20260502194954 57 0 0.0 0.0 0.00 0.00 0.00 43 1011.0
20260502193953 58 0 0.0 0.0 0.00 0.00 0.00 47 1011.0
20260502192953 58 0 0.0 0.0 0.00 0.00 0.00 46 1011.0
20260502191953 57 0 0.0 0.0 0.00 0.00 0.00 46 1011.3
20260502190953 57 0 0.0 0.0 0.00 0.00 0.00 49 1011.3
20260502185954 57 0 0.0 0.0 0.00 0.00 0.00 47 1011.3
20260502184953 57 0 0.0 0.0 0.00 0.00 0.00 49 1011.3
20260502183953 56 0 0.0 0.0 0.00 0.00 0.00 47 1011.3
20260502182952 56 0 0.0 0.0 0.00 0.00 0.00 49 1011.6
20260502181953 56 0 0.0 0.0 0.00 0.00 0.00 47 1011.3
20260502180952 56 0 0.0 0.0 0.00 0.00 0.00 50 1011.3
20260502163952 54 0 0.0 0.0 0.00 0.00 0.00 58 1012.0
20260502162951 54 0 0.0 0.0 0.00 0.00 0.00 62 1012.3
20260502161951 54 0 0.0 0.0 0.00 0.00 0.00 66 1012.3
20260502160951 54 0 0.0 0.0 0.00 0.00 0.00 65 1012.7
20260502151950 52 0 0.0 0.0 0.00 0.00 0.00 72 1012.7
20260502150950 52 0 0.0 0.0 0.00 0.00 0.00 76 1013.0
20260502122948 48 0 0.0 0.0 0.00 0.00 0.00 85 1012.7
20260502121947 48 0 0.0 0.0 0.00 0.00 0.00 86 1012.7
20260502120947 48 0 0.0 0.0 0.00 0.00 0.00 85 1012.7
20260502114948 48 0 0.0 0.0 0.00 0.00 0.00 86 1012.7
20260502113947 48 0 0.0 0.0 0.00 0.00 0.00 85 1012.3
20260502112947 48 0 0.0 0.0 0.00 0.00 0.00 85 1012.7
20260502111947 47 0 0.0 0.0 0.00 0.00 0.00 85 1012.3
20260502110947 47 0 0.0 0.0 0.00 0.00 0.00 85 1012.3
20260502105946 47 0 0.0 0.0 0.00 0.00 0.00 85 1012.3
20260502104946 47 0 0.0 0.0 0.00 0.00 0.00 85 1012.3
20260502103946 47 0 0.0 0.0 0.00 0.00 0.00 85 1012.3
20260502102947 47 0 0.0 0.0 0.00 0.00 0.00 85 1012.0
20260502101946 46 0 0.0 0.0 0.00 0.00 0.00 85 1012.0
20260502100946 46 0 0.0 0.0 0.00 0.00 0.00 85 1012.0
20260502090945 47 0 0.0 0.0 0.00 0.00 0.00 84 1011.6
20260502070944 47 0 0.0 0.0 0.00 0.00 0.00 82 1012.3
20260502065943 48 0 0.0 0.0 0.00 0.00 0.00 82 1012.7
20260502064943 48 0 0.0 0.0 0.00 0.00 0.00 82 1012.7
20260502063943 47 0 0.0 0.0 0.00 0.00 0.00 82 1012.7
20260502062944 48 0 0.0 0.0 0.00 0.00 0.00 84 1012.3
20260502061943 48 0 0.0 0.0 0.00 0.00 0.00 81 1012.7
20260502060943 48 0 0.0 0.0 0.00 0.00 0.00 81 1012.3
20260502055942 48 0 0.0 0.0 0.00 0.00 0.00 81 1012.3
20260502054942 48 0 0.0 0.0 0.00 0.00 0.00 83 1012.3
20260502053943 48 0 0.0 0.0 0.00 0.00 0.00 81 1012.7
20260502052943 48 0 0.0 0.0 0.00 0.00 0.00 80 1012.3
20260502051942 48 0 0.0 0.0 0.00 0.00 0.00 80 1012.7
20260502050942 48 0 0.0 0.0 0.00 0.00 0.00 80 1012.3
20260502045942 48 0 0.0 0.0 0.00 0.00 0.00 78 1012.7
20260502044943 48 0 0.0 0.0 0.00 0.00 0.00 78 1012.7
20260502043941 48 0 0.0 0.0 0.00 0.00 0.00 78 1012.3
20260502042941 48 0 0.0 0.0 0.00 0.00 0.00 77 1012.3
20260502041942 49 0 0.0 0.0 0.00 0.00 0.00 75 1012.3
20260502040941 48 0 0.0 0.0 0.00 0.00 0.00 76 1012.0
20260502035942 49 0 0.0 0.0 0.00 0.00 0.00 74 1012.3
20260502034941 49 0 0.0 0.0 0.00 0.00 0.00 73 1012.3
20260502033940 49 0 0.0 0.0 0.00 0.00 0.00 72 1012.3
20260502032941 49 0 0.0 0.0 0.00 0.00 0.00 70 1012.3
20260502031940 50 0 0.0 0.0 0.00 0.00 0.00 69 1012.0
20260502030940 50 0 0.0 0.0 0.00 0.00 0.00 68 1012.0
20260502025940 51 0 0.0 0.0 0.00 0.00 0.00 65 1012.3
20260502024941 51 0 0.0 0.0 0.00 0.00 0.00 64 1012.0
20260502023940 51 0 0.0 0.0 0.00 0.00 0.00 63 1012.0